timestamp,wind_dir_avg,wind_spd_avg,wind_spd_max_dir,wind_spd_gust,battery_voltage,lat,long
2021-07-26 00:04:01+00:00,211.0,3.82,214.0,4.39,13.21,47.59359,-54.27349
2021-07-26 00:14:01+00:00,217.0,4.46,218.0,4.9,12.65,47.59359,-54.27349
2021-07-26 00:24:01+00:00,218.0,4.83,224.0,5.45,12.65,47.59359,-54.27349
2021-07-26 00:34:01+00:00,217.0,5.53,216.0,6.29,12.65,47.59359,-54.27349
2021-07-26 00:44:01+00:00,216.0,5.88,217.0,6.37,12.65,47.59359,-54.27349
2021-07-26 00:54:01+00:00,218.0,5.2,226.0,6.15,12.65,47.59359,-54.27349
2021-07-26 01:04:01+00:00,220.0,4.83,227.0,5.56,12.65,47.59359,-54.27349
2021-07-26 01:14:01+00:00,225.0,4.99,227.0,5.63,12.65,47.59359,-54.27349
2021-07-26 01:24:01+00:00,217.0,5.23,219.0,5.84,12.65,47.59359,-54.27349
2021-07-26 01:34:01+00:00,215.0,5.09,216.0,5.5,12.65,47.59359,-54.27349
2021-07-26 01:44:01+00:00,220.0,4.81,226.0,5.57,12.65,47.59359,-54.27349
2021-07-26 01:54:01+00:00,222.0,5.13,223.0,5.67,12.65,47.59359,-54.27349
2021-07-26 02:04:01+00:00,216.0,4.51,222.0,5.18,12.65,47.59359,-54.27349
2021-07-26 02:14:00+00:00,214.0,5.32,217.0,5.96,12.65,47.59359,-54.27349
2021-07-26 02:24:00+00:00,214.0,5.1,212.0,5.97,12.65,47.59359,-54.27349
2021-07-26 02:34:00+00:00,225.0,5.77,225.0,6.41,12.65,47.59359,-54.27349
2021-07-26 02:44:00+00:00,230.0,4.61,233.0,5.17,12.65,47.59359,-54.27349
2021-07-26 02:54:00+00:00,214.0,4.98,207.0,5.57,12.65,47.59359,-54.27349
2021-07-26 03:04:00+00:00,222.0,4.92,224.0,5.41,12.65,47.59359,-54.27349
2021-07-26 03:14:01+00:00,227.0,4.41,228.0,5.02,12.65,47.59359,-54.27349
2021-07-26 03:24:01+00:00,228.0,4.08,223.0,4.82,12.65,47.59359,-54.27349
2021-07-26 03:34:01+00:00,218.0,5.74,216.0,6.41,12.65,47.59359,-54.27349
2021-07-26 03:44:01+00:00,222.0,6.07,223.0,6.6,12.65,47.59359,-54.27349
2021-07-26 03:54:01+00:00,218.0,5.96,219.0,6.71,12.65,47.59359,-54.27349
2021-07-26 04:04:01+00:00,215.0,5.05,217.0,5.77,12.65,47.59359,-54.27349
2021-07-26 04:14:01+00:00,217.0,4.08,224.0,4.79,12.57,47.59359,-54.27349
2021-07-26 04:24:01+00:00,228.0,3.49,231.0,4.01,12.57,47.59359,-54.27349
2021-07-26 04:34:01+00:00,221.0,3.13,216.0,3.68,12.57,47.59359,-54.27349
2021-07-26 04:44:01+00:00,223.0,2.83,220.0,3.25,12.57,47.59359,-54.27349
2021-07-26 04:54:01+00:00,208.0,2.96,210.0,3.22,12.57,47.59359,-54.27349
2021-07-26 05:04:01+00:00,205.0,2.86,203.0,3.33,12.57,47.59359,-54.27349
2021-07-26 05:14:01+00:00,196.0,3.77,196.0,4.3,12.57,47.59359,-54.27349
2021-07-26 05:24:01+00:00,205.0,3.93,201.0,4.33,12.57,47.59359,-54.27349
2021-07-26 05:34:01+00:00,209.0,3.99,206.0,4.75,12.57,47.59359,-54.27349
2021-07-26 05:44:01+00:00,211.0,3.97,217.0,4.26,12.57,47.59359,-54.27349
2021-07-26 05:54:01+00:00,216.0,3.86,215.0,4.33,12.57,47.59359,-54.27349
2021-07-26 06:04:01+00:00,210.0,3.97,221.0,4.59,12.57,47.59359,-54.27349
2021-07-26 06:14:01+00:00,211.0,4.74,210.0,5.46,12.57,47.59359,-54.27349
2021-07-26 06:24:01+00:00,213.0,4.4,214.0,5.18,12.57,47.59359,-54.27349
2021-07-26 06:34:01+00:00,224.0,4.22,223.0,4.83,12.57,47.59359,-54.27349
2021-07-26 06:44:01+00:00,222.0,3.95,222.0,5.16,12.57,47.59359,-54.27349
2021-07-26 06:54:01+00:00,221.0,3.83,227.0,4.64,12.57,47.59359,-54.27349
2021-07-26 07:04:01+00:00,223.0,4.13,214.0,4.55,12.57,47.59359,-54.27349
2021-07-26 07:14:01+00:00,219.0,3.94,218.0,4.34,12.57,47.59359,-54.27349
2021-07-26 07:24:01+00:00,222.0,3.68,222.0,4.11,12.57,47.59359,-54.27349
2021-07-26 07:34:01+00:00,226.0,3.33,229.0,3.93,12.57,47.59359,-54.27349
2021-07-26 07:44:01+00:00,239.0,3.08,239.0,3.44,12.57,47.59359,-54.27349
2021-07-26 07:54:01+00:00,254.0,3.45,254.0,3.92,12.57,47.59359,-54.27349
2021-07-26 08:04:01+00:00,259.0,3.65,268.0,4.32,12.57,47.59359,-54.27349
2021-07-26 08:14:00+00:00,264.0,4.04,266.0,4.39,12.49,47.59359,-54.27349
2021-07-26 08:24:00+00:00,268.0,2.69,266.0,3.38,12.49,47.59359,-54.27349
2021-07-26 08:34:00+00:00,249.0,4.21,243.0,4.58,12.49,47.59359,-54.27349
2021-07-26 08:44:00+00:00,240.0,2.89,246.0,3.47,12.49,47.59359,-54.27349
2021-07-26 08:54:00+00:00,264.0,3.26,264.0,4.01,12.49,47.59359,-54.27349
2021-07-26 09:04:00+00:00,221.0,2.08,227.0,2.52,12.49,47.59359,-54.27349
2021-07-26 09:14:00+00:00,262.0,2.6,265.0,3.14,12.49,47.59359,-54.27349
2021-07-26 09:24:00+00:00,280.0,2.46,285.0,2.72,12.49,47.59359,-54.27349
2021-07-26 09:34:00+00:00,277.0,3.01,275.0,3.48,12.49,47.59359,-54.27349
2021-07-26 09:44:00+00:00,280.0,2.37,283.0,2.76,12.49,47.59359,-54.27349
2021-07-26 09:54:00+00:00,285.0,1.88,294.0,2.2,12.49,47.59359,-54.27349
2021-07-26 10:04:00+00:00,287.0,2.28,287.0,2.51,12.49,47.59359,-54.27349
2021-07-26 10:14:01+00:00,272.0,1.66,263.0,1.98,12.73,47.59359,-54.27349
2021-07-26 10:24:01+00:00,289.0,0.57,288.0,1.21,12.73,47.59359,-54.27349
2021-07-26 10:34:01+00:00,259.0,0.98,261.0,1.11,12.73,47.59359,-54.27349
2021-07-26 10:44:01+00:00,236.0,2.24,228.0,2.51,12.73,47.59359,-54.27349
2021-07-26 10:54:01+00:00,237.0,1.55,231.0,2.7,12.73,47.59359,-54.27349
2021-07-26 11:04:01+00:00,210.0,3.2,213.0,3.71,12.73,47.59359,-54.27349
2021-07-26 11:14:00+00:00,221.0,3.03,216.0,3.53,13.21,47.59359,-54.27349
2021-07-26 11:24:00+00:00,225.0,2.44,222.0,2.97,13.21,47.59359,-54.27349
2021-07-26 11:34:00+00:00,204.0,2.7,194.0,2.97,13.21,47.59359,-54.27349
2021-07-26 11:44:00+00:00,228.0,1.91,222.0,2.41,13.21,47.59359,-54.27349
2021-07-26 11:54:00+00:00,219.0,3.57,225.0,4.56,13.21,47.59359,-54.27349
2021-07-26 12:04:00+00:00,231.0,3.31,233.0,4.13,13.21,47.59359,-54.27349
2021-07-26 12:14:01+00:00,210.0,2.89,210.0,3.21,13.37,47.59359,-54.27349
2021-07-26 12:24:01+00:00,216.0,3.97,214.0,4.42,13.37,47.59359,-54.27349
2021-07-26 12:34:01+00:00,220.0,2.98,221.0,3.59,13.37,47.59359,-54.27349
2021-07-26 12:44:01+00:00,195.0,2.4,195.0,2.75,13.37,47.59359,-54.27349
2021-07-26 12:54:01+00:00,187.0,2.04,187.0,2.33,13.37,47.59359,-54.27349
2021-07-26 13:04:01+00:00,224.0,2.0,233.0,2.64,13.37,47.59359,-54.27349
2021-07-26 13:14:01+00:00,215.0,1.72,214.0,2.13,13.68,47.59359,-54.27349
2021-07-26 13:24:01+00:00,202.0,2.07,206.0,2.24,13.68,47.59359,-54.27349
2021-07-26 13:34:01+00:00,208.0,2.65,206.0,2.96,13.68,47.59359,-54.27349
2021-07-26 13:44:01+00:00,195.0,3.07,194.0,3.56,13.68,47.59359,-54.27349
2021-07-26 13:54:01+00:00,212.0,3.01,218.0,3.34,13.68,47.59359,-54.27349
2021-07-26 14:04:01+00:00,205.0,3.84,198.0,4.36,13.68,47.59359,-54.27349
2021-07-26 14:14:01+00:00,208.0,5.14,212.0,5.73,13.76,47.59359,-54.27349
2021-07-26 14:24:01+00:00,214.0,4.78,214.0,5.24,13.76,47.59359,-54.27349
2021-07-26 14:34:01+00:00,215.0,4.5,214.0,5.24,13.76,47.59359,-54.27349
2021-07-26 14:44:01+00:00,216.0,5.03,218.0,5.63,13.76,47.59359,-54.27349
2021-07-26 14:54:01+00:00,215.0,5.43,213.0,6.23,13.76,47.59359,-54.27349
2021-07-26 15:04:01+00:00,218.0,5.64,217.0,6.57,13.76,47.59359,-54.27349
2021-07-26 15:14:01+00:00,217.0,6.16,217.0,7.07,13.84,47.59359,-54.27349
2021-07-26 15:24:01+00:00,217.0,7.33,219.0,8.4,13.84,47.59359,-54.27349
2021-07-26 15:34:01+00:00,223.0,8.5,224.0,9.35,13.84,47.59359,-54.27349
2021-07-26 15:44:01+00:00,220.0,6.82,220.0,7.84,13.84,47.59359,-54.27349
2021-07-26 15:54:01+00:00,215.0,7.47,216.0,8.21,13.84,47.59359,-54.27349
2021-07-26 16:04:01+00:00,215.0,6.78,215.0,7.63,13.84,47.59359,-54.27349
2021-07-26 16:14:01+00:00,213.0,6.58,215.0,7.19,13.76,47.59359,-54.27349
2021-07-26 16:24:01+00:00,209.0,7.38,205.0,7.92,13.76,47.59359,-54.27349
2021-07-26 16:34:01+00:00,214.0,7.72,215.0,8.66,13.76,47.59359,-54.27349
2021-07-26 16:44:01+00:00,203.0,8.55,204.0,9.36,13.76,47.59359,-54.27349
2021-07-26 16:54:01+00:00,205.0,8.28,203.0,9.07,13.76,47.59359,-54.27349
2021-07-26 17:04:01+00:00,207.0,8.21,207.0,9.05,13.76,47.59359,-54.27349
2021-07-26 17:14:01+00:00,211.0,8.68,211.0,9.82,13.84,47.59359,-54.27349
2021-07-26 17:24:01+00:00,213.0,8.94,214.0,9.53,13.84,47.59359,-54.27349
2021-07-26 17:34:01+00:00,215.0,8.89,217.0,9.89,13.84,47.59359,-54.27349
2021-07-26 17:44:01+00:00,208.0,8.29,207.0,9.19,13.84,47.59359,-54.27349
2021-07-26 17:54:01+00:00,205.0,8.24,209.0,9.21,13.84,47.59359,-54.27349
2021-07-26 18:04:01+00:00,211.0,7.74,211.0,8.57,13.84,47.59359,-54.27349
2021-07-26 18:14:01+00:00,204.0,7.08,211.0,8.18,13.84,47.59359,-54.27349
2021-07-26 18:24:01+00:00,195.0,7.67,191.0,8.23,13.84,47.59359,-54.27349
2021-07-26 18:34:01+00:00,200.0,6.79,199.0,7.58,13.84,47.59359,-54.27349
2021-07-26 18:44:01+00:00,199.0,6.18,195.0,6.67,13.84,47.59359,-54.27349
2021-07-26 18:54:01+00:00,209.0,7.89,208.0,8.6,13.84,47.59359,-54.27349
2021-07-26 19:04:01+00:00,201.0,8.25,201.0,9.03,13.84,47.59359,-54.27349
2021-07-26 19:14:01+00:00,205.0,8.37,204.0,9.1,13.92,47.59359,-54.27349
2021-07-26 19:24:01+00:00,204.0,8.42,204.0,9.0,13.92,47.59359,-54.27349
2021-07-26 19:34:01+00:00,208.0,8.72,204.0,9.46,13.92,47.59359,-54.27349
2021-07-26 19:44:01+00:00,205.0,8.99,207.0,10.06,13.92,47.59359,-54.27349
2021-07-26 19:54:01+00:00,206.0,9.1,208.0,9.88,13.92,47.59359,-54.27349
2021-07-26 20:04:01+00:00,209.0,9.67,212.0,10.55,13.92,47.59359,-54.27349
2021-07-26 20:14:01+00:00,206.0,8.87,206.0,9.7,13.76,47.59359,-54.27349
2021-07-26 20:24:01+00:00,218.0,9.09,219.0,9.69,13.76,47.59359,-54.27349
2021-07-26 20:34:01+00:00,213.0,9.86,213.0,10.55,13.76,47.59359,-54.27349
2021-07-26 20:44:01+00:00,215.0,9.14,216.0,10.04,13.76,47.59359,-54.27349
2021-07-26 20:54:01+00:00,214.0,8.74,221.0,9.77,13.76,47.59359,-54.27349
2021-07-26 21:04:01+00:00,211.0,9.5,211.0,10.51,13.76,47.59359,-54.27349
2021-07-26 21:14:01+00:00,207.0,8.5,207.0,9.56,13.53,47.59359,-54.27349
2021-07-26 21:24:01+00:00,214.0,8.47,215.0,9.56,13.53,47.59359,-54.27349
2021-07-26 21:34:01+00:00,217.0,8.5,216.0,10.24,13.53,47.59359,-54.27349
2021-07-26 21:44:01+00:00,215.0,8.05,213.0,9.0,13.53,47.59359,-54.27349
2021-07-26 21:54:01+00:00,213.0,8.13,214.0,9.08,13.53,47.59359,-54.27349
2021-07-26 22:04:01+00:00,209.0,7.58,216.0,8.97,13.53,47.59359,-54.27349
2021-07-26 22:14:01+00:00,214.0,7.14,216.0,8.04,13.53,47.59359,-54.27349
2021-07-26 22:24:01+00:00,207.0,7.36,213.0,8.53,13.53,47.59359,-54.27349
2021-07-26 22:34:01+00:00,210.0,7.25,208.0,8.02,13.53,47.59359,-54.27349
2021-07-26 22:44:01+00:00,215.0,7.9,216.0,8.63,13.53,47.59359,-54.27349
2021-07-26 22:54:01+00:00,216.0,7.61,222.0,8.24,13.53,47.59359,-54.27349
2021-07-26 23:04:01+00:00,210.0,8.05,204.0,9.7,13.53,47.59359,-54.27349
2021-07-26 23:14:01+00:00,215.0,7.73,215.0,8.52,13.13,47.59359,-54.27349
2021-07-26 23:24:01+00:00,216.0,7.28,220.0,8.2,13.13,47.59359,-54.27349
2021-07-26 23:34:01+00:00,214.0,7.23,216.0,7.95,13.13,47.59359,-54.27349
2021-07-26 23:44:01+00:00,217.0,7.93,223.0,8.72,13.13,47.59359,-54.27349
2021-07-26 23:54:01+00:00,220.0,7.63,224.0,8.83,13.13,47.59359,-54.27349
